Tracking 20241 objects as of 25-Jan-2020
HD Live streaming from Space Station
objects crossing your sky now

FENGYUN 1C DEB

Track FENGYUN 1C DEB now!
10-day predictions


NORAD ID: 36153
Int'l Code: 1999-025DSA
Perigee: 776.5 km
Apogee: 841.9 km
Inclination: 98.7 °
Period: 100.9 minutes
Semi major axis: 7180 km
RCS: 0.0062 m2 (small)
Launch date: May 10, 1999
Source: People's Republic of China (PRC)
Launch site: Taiyaun Space Center, China (TSC)

Note: This is SATELLITE DEBRIS
aabbcc
Your satellite tracking list
Your tracking list is empty




NASA's NSSDC Master Catalog

Two Line Element Set (TLE):
1 36153U 99025DSA 20024.13803866 +.00000555 +00000-0 +24431-3 0  9998
2 36153 098.7238 089.2868 0045513 269.5858 119.5282 14.26914408341723
Source of the keplerian elements: AFSPC